STARLINK-30194

operational
NORAD ID: 57308 Int'l Des: 2023-096 Owner: SPXS Country: US Constellation: starlink
LEOCIRCULAR

关于 STARLINK-30194

正在加载描述...

实时位置

正在加载3D地球...

即将过境

高度历史

Altitude vs Time

uPlot chart will show altitude changes over time

两行轨道根数

1 57308U 23096U 25244.10510493 .10497208 87591-5 59210-2 0 9998
2 57308 42.9671 113.5131 0023838 256.3108 103.5122 16.17498794118884
Epoch: Sep 1, 2025 • Age: 417 hours

当前状态

Position data unavailable
发射日期 Jul 10, 2023
运行时间 2.1 years
衰减日期 Sep 1, 2025
类型 internet

技术详情

分类 Payload
质量 730.00 kg
干质量 700.00 kg
总质量 730.00 kg
长度 0.30 m
直径 4.10 m
跨度 29.00 m
形状 Box + pan
制造商 SPXS
平台类型 Starlink V2M
阶段状态 Reentered
所有者/国家 SPXS/US

大型星座

Loading constellations...